Location: Killam
(52.7910°N, 111.8608°W)
Time: 04:42:37
(UTC+00:00)

A-11 Canister half - Pass Details

Date: 24 February 2026
Orbit: 1524 x 1683 km, 47.3° (Epoch: 13 March)

Event Time Altitude Azimuth Distance (km) Brightness Sun altitude
Rises 01:11:46 0° 262° (W) 4,715 14.8 -3.2°
Reaches altitude 10° 01:14:52 10° 259° (W) 3,718 13.1 -3.7°
Maximum altitude 01:24:02 64° 181° (S) 1,669 9.3 -5.1°
Drops below altitude 10° 01:33:09 10° 104° (ESE) 3,697 10.4 -6.4°
Enters shadow 01:34:36 - 102° (ESE) 4,162 10.7 -6.6°
Sets 01:36:13 0° 101° (E) 4,688 - -6.9°
